STARLINK-36762

Last updated on Mon Mar 23 2026 00:02:07 GMT+0000 (Coordinated Universal Time)

1 67868U 26034U 26080.91948830 .00644728 00000+0 30039-2 0 9995 2 67868 53.1581 149.9060 0001726 33.4549 326.6583 15.81080361 5879
UTC large
Height (km)
Speed (km/s)
/
Latitude / Longitude
Inclination (degrees)
Orbital Period (minutes)
Azimuth
Elevation
Range (km)
Doppler Factor

Next 0 passes for location: London (51.5072 / 0.1276)

Sorry there are no passes over London.